| time (UTC) | temp C | wind direction | speed KPH | gust KPH | rain 1hr cm | rain 24hr cm | rain mn cm | humidity % | barometer mb |
| 20260505073014 | 19 | 360 | 4.8 | 12.9 | 0.00 | 0.00 | 0.00 | 58 | 1003.5 |
| 20260505071510 | 19 | 360 | 6.4 | 14.5 | 0.00 | 0.00 | 0.00 | 57 | 1003.2 |
| 20260505070009 | 20 | 360 | 4.8 | 17.7 | 0.00 | 0.00 | 0.00 | 56 | 1003.2 |
| 20260505064508 | 20 | 360 | 4.8 | 27.4 | 0.00 | 0.00 | 0.00 | 56 | 1003.0 |
| 20260505063005 | 20 | 360 | 4.8 | 24.1 | 0.00 | 0.00 | 0.00 | 55 | 1002.8 |
| 20260505061502 | 20 | 360 | 8.0 | 24.1 | 0.00 | 0.00 | 0.00 | 54 | 1002.8 |
| 20260505060103 | 20 | 360 | 8.0 | 24.1 | 0.00 | 0.00 | 0.00 | 54 | 1002.7 |
| 20260505054602 | 20 | 360 | 11.3 | 30.6 | 0.00 | 0.00 | 0.00 | 53 | 1002.5 |
| 20260505053057 | 21 | 360 | 6.4 | 25.7 | 0.00 | 0.00 | 0.00 | 53 | 1002.3 |
| 20260505051555 | 21 | 360 | 11.3 | 27.4 | 0.00 | 0.00 | 0.00 | 53 | 1002.1 |
| 20260505041544 | 21 | 360 | 8.0 | 29.0 | 0.00 | 0.00 | 0.00 | 54 | 1002.8 |
| 20260505040044 | 21 | 360 | 8.0 | 22.5 | 0.00 | 0.00 | 0.00 | 54 | 1003.0 |
| 20260505034601 | 21 | 360 | 6.4 | 17.7 | 0.00 | 0.00 | 0.00 | 54 | 1003.0 |
| 20260505033043 | 21 | 360 | 6.4 | 16.1 | 0.00 | 0.00 | 0.00 | 55 | 1003.0 |
| 20260505031542 | 21 | 360 | 6.4 | 16.1 | 0.00 | 0.00 | 0.00 | 55 | 1003.0 |
| 20260505030047 | 21 | 360 | 4.8 | 12.9 | 0.00 | 0.00 | 0.00 | 55 | 1002.9 |
| 20260505024639 | 21 | 360 | 4.8 | 17.7 | 0.00 | 0.00 | 0.00 | 56 | 1002.8 |
| 20260505023043 | 21 | 360 | 4.8 | 9.7 | 0.00 | 0.00 | 0.00 | 57 | 1002.6 |
| 20260505021537 | 20 | 360 | 3.2 | 8.0 | 0.00 | 0.00 | 0.00 | 57 | 1002.4 |
| 20260505020051 | 21 | 360 | 1.6 | 6.4 | 0.00 | 0.00 | 0.00 | 57 | 1002.1 |
| 20260505014540 | 21 | 360 | 1.6 | 6.4 | 0.00 | 0.00 | 0.00 | 56 | 1002.0 |
| 20260505013040 | 21 | 360 | 3.2 | 8.0 | 0.00 | 0.00 | 0.00 | 56 | 1001.9 |
| 20260505011534 | 21 | 360 | 3.2 | 12.9 | 0.00 | 0.00 | 0.00 | 55 | 1001.8 |
| 20260505010034 | 21 | 360 | 4.8 | 8.0 | 0.00 | 0.00 | 0.00 | 53 | 1001.8 |
| 20260505004555 | 22 | 360 | 3.2 | 12.9 | 0.00 | 0.00 | 0.00 | 52 | 1001.8 |
| 20260505003033 | 22 | 360 | 3.2 | 9.7 | 0.00 | 0.00 | 0.00 | 51 | 1001.7 |
| 20260505001536 | 22 | 360 | 6.4 | 12.9 | 0.00 | 0.00 | 0.00 | 49 | 1001.8 |
| 20260505000036 | 23 | 192 | 6.4 | 22.5 | 0.00 | 0.00 | 0.00 | 48 | 1001.9 |
| 20260504234529 | 23 | 222 | 4.8 | 16.1 | 0.00 | 0.00 | 0.00 | 47 | 1002.1 |
| 20260504233027 | 23 | 196 | 8.0 | 27.4 | 0.00 | 0.00 | 0.00 | 45 | 1002.4 |
| 20260504231526 | 23 | 211 | 8.0 | 24.1 | 0.00 | 0.00 | 0.00 | 45 | 1002.5 |
| 20260504230026 | 24 | 197 | 14.5 | 29.0 | 0.00 | 0.00 | 0.00 | 45 | 1002.4 |
| 20260504224532 | 23 | 196 | 8.0 | 24.1 | 0.00 | 0.00 | 0.00 | 51 | 1002.6 |
| 20260504223021 | 23 | 206 | 4.8 | 19.3 | 0.00 | 0.00 | 0.00 | 51 | 1002.7 |
| 20260504221522 | 23 | 212 | 3.2 | 14.5 | 0.00 | 0.00 | 0.00 | 51 | 1002.9 |
| 20260504220019 | 23 | 187 | 1.6 | 9.7 | 0.00 | 0.00 | 0.00 | 50 | 1003.0 |
| 20260504214518 | 23 | 186 | 3.2 | 14.5 | 0.00 | 0.00 | 0.00 | 49 | 1002.8 |
| 20260504213032 | 23 | 197 | 3.2 | 11.3 | 0.00 | 0.00 | 0.00 | 50 | 1003.5 |
| 20260504211515 | 23 | 191 | 1.6 | 16.1 | 0.00 | 0.00 | 0.00 | 50 | 1003.7 |
| 20260504210011 | 23 | 192 | 4.8 | 14.5 | 0.00 | 0.00 | 0.00 | 49 | 1004.0 |
| 20260504204509 | 23 | 203 | 4.8 | 19.3 | 0.00 | 0.00 | 0.00 | 51 | 1004.0 |
| 20260504203005 | 23 | 271 | 4.8 | 30.6 | 0.00 | 0.00 | 0.00 | 52 | 1004.3 |
| 20260504201503 | 22 | 225 | 3.2 | 19.3 | 0.00 | 0.00 | 0.00 | 53 | 1004.5 |
| 20260504200006 | 23 | 184 | 9.7 | 22.5 | 0.00 | 0.00 | 0.00 | 52 | 1004.6 |
| 20260504194605 | 22 | 246 | 3.2 | 19.3 | 0.00 | 0.00 | 0.00 | 56 | 1004.7 |
| 20260504193057 | 21 | 223 | 11.3 | 24.1 | 0.00 | 0.00 | 0.00 | 56 | 1005.0 |
| 20260504191620 | 20 | 360 | 4.8 | 12.9 | 0.00 | 0.00 | 0.00 | 62 | 1005.3 |
| 20260504184603 | 20 | 360 | 1.6 | 16.1 | 0.00 | 0.00 | 0.00 | 61 | 1006.0 |
| 20260504183054 | 20 | 360 | 8.0 | 19.3 | 0.00 | 0.00 | 0.00 | 59 | 1005.8 |
| 20260504181553 | 21 | 236 | 6.4 | 22.5 | 0.00 | 0.00 | 0.00 | 57 | 1005.7 |
| 20260504180053 | 21 | 179 | 9.7 | 29.0 | 0.00 | 0.00 | 0.00 | 56 | 1005.2 |
| 20260504174550 | 21 | 194 | 9.7 | 25.7 | 0.00 | 0.00 | 0.00 | 56 | 1004.9 |
| 20260504173049 | 21 | 219 | 4.8 | 22.5 | 0.00 | 0.00 | 0.00 | 59 | 1004.9 |
| 20260504171545 | 20 | 165 | 3.2 | 14.5 | 0.00 | 0.00 | 0.00 | 62 | 1005.2 |
| 20260504081503 | 12 | 360 | 1.6 | 8.0 | 0.00 | 0.00 | 0.00 | 60 | 1007.7 |